Regional Weather Roundup
Issued by NWS Cleveland, OH

Home | Current Version | Previous Version | Graphics & Text | Print | Product List | Glossary On
Versions: 1 2 3 4 5 6 7 8 9 10 11 12 13 14 15 16 17 18 19 20 21 22 23 24 25 26 27 28 29 30 31 32 33 34 35 36 37 38 39 40 41 42 43 44 45 46 47 48 49 50
000
ASUS41 KCLE 301110
RWRCLE
OHIO REGIONAL WEATHER ROUNDUP
NATIONAL WEATHER SERVICE CLEVELAND, OH
700 AM EDT SUN APR 30 2017

NOTE: "FAIR" INDICATES FEW OR NO CLOUDS BELOW 12,000 FEET WITH NO
SIGNIFICANT WEATHER AND/OR OBSTRUCTIONS TO VISIBILITY.

OHZ001>008-015>018-024>027-034-035-043-044-301200-
   NORTHWEST OHIO

CITY           SKY/WX    TMP DP  RH WIND       PRES   REMARKS
DEFIANCE       CLOUDY    46  44  93 E10G21    29.97R
FINDLAY        CLOUDY    49  45  86 E8        29.95F FOG
TOLEDO EXPRESS CLOUDY    47  46  97 E10       29.97F
TOLEDO EXEC    CLOUDY    48  47  96 E9        29.99F
LIMA           FOG       49  49 100 SE12      29.94R VSB 1/2
$$

OHZ009>014-019>023-028>033-038-089-301200-
   NORTHEAST OHIO

CITY           SKY/WX    TMP DP  RH WIND       PRES   REMARKS
CLE-HOPKINS    CLOUDY    51  45  79 E8        30.04S
CLE-LAKEFRONT  CLOUDY    49  44  83 NE14      30.02S
CUY CO. ARPT   MOCLDY    48  46  93 NE6       30.05
LORAIN-ELYRIA  CLOUDY    48  44  86 E8        30.02R
ASHTABULA      PTCLDY    46  42  86 VRB7      30.07R
AKRON-CANTON   CLOUDY    57  53  86 E5        30.02R
WOOSTER        CLOUDY    53  52  96 CALM      30.03R FOG
MANSFIELD      FOG       53  53 100 E9        29.99F VSB 1/4
YOUNGSTOWN     CLOUDY    53  52  96 NW3       30.06R
$$

OHZ042-051>053-060>062-070>072-077>081-301200-
  SOUTHWEST OHIO

CITY           SKY/WX    TMP DP  RH WIND       PRES   REMARKS
CINC-COVINGTON CLOUDY    68  63  84 S6        29.91F
CINC-LUNKEN    CLOUDY    63  63 100 NE3       29.93R FOG
HAMILTON       CLOUDY    59  59 100 CALM      29.93S FOG
DAYTON         FOG       57  57 100 SE7       29.95R VSB<1/4
WRIGHT-PAT AFB CLOUDY    58  58 100 CALM      29.95R FOG
DAYTON GENERAL CLOUDY    60  60 100 E7        29.94R FOG
WILMINGTON     PTCLDY    59  59 100 E3        29.96R FOG
$$

OHZ036-037-039>041-045>050-054>059-063>069-073>076-082>088-301200-
  CENTRAL AND SOUTHEAST OHIO

CITY           SKY/WX    TMP DP  RH WIND       PRES   REMARKS
COLUMBUS       FOG       59  59 100 E6        29.97F VSB 1/2
OSU AIRPORT    FOG       57  57 100 E7        29.97S VSB 1/2
BOLTON FIELD   FOG       57  57 100 E3        29.98F VSB 1/2
RICKENBACK AFB CLOUDY    59  59 100 E7        29.97F
NEWARK         FOG       58  57  97 E5        30.00R VSB 1/4
MARION         FOG       54  53  97 SE8       29.97F VSB 1/2
LANCASTER      FOG       60  58  92 CALM      30.00R VSB 1/4
ZANESVILLE     FOG       60  59  96 SE3       30.01R VSB 1/4
NEW PHILLY     NOT AVBL
$$




USA.gov is the U.S. government's official web portal to all federal, state and local government web resources and services.